Change the Weather History Date:

Saturday, October 6, 2012

  Actual Average Record
Temperature  
Mean Temperature 53 °F -  
Max Temperature 59 °F 66 °F 93 °F (1945)
Min Temperature 47 °F 50 °F 43 °F (1947)
Degree Days  
Heating Degree Days 12    
Growing Degree Days 3 (Base 50)    
Moisture  
Dew Point 50 °F    
Average Humidity 96    
Maximum Humidity 100    
Minimum Humidity 77    
Precipitation  
Precipitation 0.00 in - - ()
Sea Level Pressure  
Sea Level Pressure 30.07 in    
Wind  
Wind Speed 2 mph (SE)    
Max Wind Speed 7 mph    
Max Gust Speed -    
Visibility 7 miles    
Events Rain    
Averages and records for this station are not official NWS values.
T = Trace of Precipitation, MM = Missing Value Source: NWS Daily Summary

Daily Weather History Graph

Daily Weather History Graph

Search for Another Location

Airport or City:

Trip Planner

Search our weather history database for the weather conditions in past years. The results will help you decide how hot, cold, wet, or windy it might be!

Date:

Astronomy

Oct. 06, 2012 Rise Set
Actual Time 7:20 AM PDT 6:49 PM PDT
Civil Twilight 6:52 AM PDT 7:17 PM PDT
Nautical Twilight 6:19 AM PDT 7:49 PM PDT
Astronomical Twilight 5:47 AM PDT 8:21 PM PDT
Moon 11:05 PM PDT (10/6) 1:23 PM PDT (10/6)
Length of Visible Light 12h 24m
Length of Day
11h 28m
Waning Gibbous, 64% of the Moon is Illuminated
Oct 6
Waning Gibbous
Oct 8
Last Quarter
Oct 15
New
Oct 21
First Quarter
Oct 29
Full

Hourly Weather History & Observations

Time (PDT) Temp. Dew Point Humidity Pressure Visibility Wind Dir Wind Speed Gust Speed Precip Events Conditions
12:56 AM 50.9 °F 50.9 °F 100% 30.13 in 10.0 mi Calm Calm - N/A   Clear
1:56 AM 50.0 °F 50.0 °F 100% 30.13 in 10.0 mi Calm Calm - N/A   Clear
2:56 AM 50.0 °F 50.0 °F 100% 30.12 in 10.0 mi Calm Calm - N/A   Clear
3:56 AM 48.9 °F 48.9 °F 100% 30.10 in 10.0 mi Calm Calm - N/A   Clear
5:56 AM 47.8 °F 47.8 °F 100% 30.10 in 10.0 mi Calm Calm - N/A   Clear
6:56 AM 47.8 °F 47.8 °F 100% 30.10 in 10.0 mi Calm Calm - N/A   Clear
7:25 AM 48.2 °F 48.2 °F 100% 30.10 in 10.0 mi Calm Calm - N/A   Mostly Cloudy
7:56 AM 48.9 °F 48.9 °F 100% 30.11 in 10.0 mi Calm Calm - N/A   Mostly Cloudy
8:09 AM 48.2 °F 48.2 °F 100% 30.10 in 10.0 mi Calm Calm - N/A   Scattered Clouds
8:56 AM 50.9 °F 50.9 °F 100% 30.11 in 10.0 mi Calm Calm - N/A   Clear
9:56 AM 57.9 °F 54.0 °F 87% 30.10 in 10.0 mi Calm Calm - N/A   Clear
10:56 AM 59.0 °F 52.9 °F 80% 30.08 in 10.0 mi WNW 6.9 mph - N/A   Clear
11:56 AM 57.9 °F 50.9 °F 77% 30.08 in 10.0 mi West 6.9 mph - N/A   Clear
1:56 PM 57.9 °F 52.0 °F 81% 30.07 in 10.0 mi WNW 5.8 mph - N/A   Clear
4:56 PM 57.9 °F 50.9 °F 77% 30.05 in 10.0 mi Variable 4.6 mph - N/A   Clear
5:56 PM 55.9 °F 50.9 °F 83% 30.04 in 10.0 mi Calm Calm - N/A   Clear
6:56 PM 52.9 °F 52.0 °F 97% 30.04 in 10.0 mi Calm Calm - N/A   Clear
7:56 PM 52.0 °F 52.0 °F 100% 30.04 in 10.0 mi ESE 4.6 mph - 0.00 in Rain Light Rain
8:46 PM 51.8 °F 51.8 °F 100% 30.04 in 9.0 mi Variable 5.8 mph - 0.00 in Rain Light Rain
8:56 PM 50.9 °F 50.9 °F 100% 30.05 in 7.0 mi SE 4.6 mph - 0.00 in Rain Light Rain
10:08 PM 51.8 °F 51.8 °F 100% 30.03 in 2.5 mi SE 3.5 mph - N/A   Overcast
10:15 PM 51.8 °F 51.8 °F 100% 30.03 in 4.0 mi Calm Calm - N/A   Overcast
10:26 PM 51.8 °F 51.8 °F 100% 30.03 in 1.8 mi SE 4.6 mph - N/A   Overcast
10:29 PM 51.8 °F 51.8 °F 100% 30.03 in 1.0 mi SE 4.6 mph - N/A   Overcast
10:37 PM 50.0 °F 50.0 °F 100% 30.03 in 0.8 mi SE 4.6 mph - N/A   Overcast
10:44 PM 50.0 °F 50.0 °F 100% 30.03 in 1.2 mi SE 5.8 mph - N/A   Overcast
10:56 PM 50.0 °F 50.0 °F 100% 30.04 in 1.8 mi SE 4.6 mph - N/A   Overcast
11:02 PM 50.0 °F 50.0 °F 100% 30.03 in 1.0 mi SE 4.6 mph - N/A   Overcast
11:23 PM 48.2 °F 48.2 °F 100% 30.03 in 1.2 mi SE 3.5 mph - N/A   Overcast
11:30 PM 48.2 °F 48.2 °F 100% 30.03 in 2.0 mi Calm Calm - N/A   Overcast
11:38 PM 48.2 °F 48.2 °F 100% 30.02 in 9.0 mi Calm Calm - N/A   Overcast